EW7659 Weather Reports


time (UTC)temp
C
wind
direction
speed
KPH
gust
KPH
rain 1hr
cm
rain 24hr
cm
rain mn
cm
humidity
%
barometer
mb
20260906194720 40 153 0.0 9.7 0.00 0.00 0.00 30 1006.4
20260906194221 40 153 0.0 0.0 0.00 0.00 0.00 29 1006.4
20260906193721 40 153 0.0 0.0 0.00 0.00 0.00 29 1006.5
20260906193219 40 153 0.0 0.0 0.00 0.00 0.00 29 1006.6
20260906192716 39 154 0.0 0.0 0.00 0.00 0.00 30 1006.6
20260906192436 38 154 0.0 0.0 0.00 0.00 0.00 31 1006.7
20260906192157 38 153 0.0 0.0 0.00 0.00 0.00 31 1006.7
20260906191216 38 153 0.0 0.0 0.00 0.00 0.00 33 1006.7
20260906190942 38 153 0.0 0.0 0.00 0.00 0.00 33 1006.8
20260906190214 38 153 0.0 0.0 0.00 0.00 0.00 33 1006.9
20260906185715 38 153 0.0 0.0 0.00 0.00 0.00 32 1006.9
20260906185214 38 153 0.0 0.0 0.00 0.00 0.00 32 1006.9
20260906184712 38 153 0.0 0.0 0.00 0.00 0.00 33 1007.0
20260906184432 38 153 0.0 0.0 0.00 0.00 0.00 32 1007.0
20260906184156 38 153 0.0 0.0 0.00 0.00 0.00 31 1007.2
20260906183208 39 153 0.0 0.0 0.00 0.00 0.00 31 1007.3
20260906183158 40 153 0.0 1.6 0.00 0.00 0.00 31 1007.4
20260906182206 39 153 0.0 1.6 0.00 0.00 0.00 32 1007.4
20260906181706 39 152 0.0 11.3 0.00 0.00 0.00 33 1007.5
20260906181428 39 153 0.0 11.3 0.00 0.00 0.00 32 1007.6
20260906180706 38 125 0.0 3.2 0.00 0.00 0.00 33 1007.6
20260906180206 38 125 0.0 3.2 0.00 0.00 0.00 34 1007.8
20260906175932 38 125 0.0 3.2 0.00 0.00 0.00 34 1007.9
20260906175655 38 144 0.0 3.2 0.00 0.00 0.00 33 1008.0
20260906174705 38 148 0.0 1.6 0.00 0.00 0.00 34 1008.2
20260906174205 38 148 0.0 0.0 0.00 0.00 0.00 33 1008.3
20260906173705 39 150 0.0 0.0 0.00 0.00 0.00 33 1008.4
20260906173205 38 159 0.0 0.0 0.00 0.00 0.00 33 1008.6
20260906172705 38 159 0.0 0.0 0.00 0.00 0.00 34 1008.7
20260906172205 38 159 0.0 0.0 0.00 0.00 0.00 34 1008.7
20260906171929 38 173 0.0 0.0 0.00 0.00 0.00 37 1008.8
20260906171206 38 173 0.0 0.0 0.00 0.00 0.00 36 1008.9
20260906170705 38 171 0.0 0.0 0.00 0.00 0.00 36 1009.0
20260906170205 37 171 0.0 0.0 0.00 0.00 0.00 37 1009.0
20260906165705 38 171 0.0 0.0 0.00 0.00 0.00 37 1009.1
20260906165423 38 171 0.0 0.0 0.00 0.00 0.00 36 1009.1
20260906164930 37 171 0.0 0.0 0.00 0.00 0.00 38 1009.2
20260906164205 37 171 0.0 0.0 0.00 0.00 0.00 38 1009.2
20260906163706 37 171 0.0 0.0 0.00 0.00 0.00 38 1009.2
20260906163205 37 171 0.0 0.0 0.00 0.00 0.00 39 1009.1
20260906162925 37 171 0.0 0.0 0.00 0.00 0.00 40 1009.2
20260906162205 37 171 0.0 0.0 0.00 0.00 0.00 39 1009.2
20260906161706 36 171 0.0 0.0 0.00 0.00 0.00 41 1009.2
20260906161205 36 172 0.0 0.0 0.00 0.00 0.00 41 1009.3
20260906160926 36 171 0.0 0.0 0.00 0.00 0.00 42 1009.3
20260906160651 36 171 0.0 0.0 0.00 0.00 0.00 43 1009.3
20260906155925 35 171 0.0 0.0 0.00 0.00 0.00 44 1009.3
20260906155205 35 171 0.0 3.2 0.00 0.00 0.00 43 1009.3
20260906154705 35 171 0.0 3.2 0.00 0.00 0.00 43 1009.3
20260906154430 35 170 0.0 0.0 0.00 0.00 0.00 43 1009.3
20260906153705 35 170 0.0 1.6 0.00 0.00 0.00 44 1009.2
20260906153204 35 169 0.0 1.6 0.00 0.00 0.00 45 1009.2
20260906152704 34 169 0.0 1.6 0.00 0.00 0.00 45 1009.2
20260906152419 34 168 0.0 1.6 0.00 0.00 0.00 47 1009.3
20260906151700 34 168 0.0 0.0 0.00 0.00 0.00 45 1009.2
20260906151200 34 168 0.0 0.0 0.00 0.00 0.00 46 1009.2
20260906150700 33 168 0.0 0.0 0.00 0.00 0.00 47 1009.2
20260906150200 33 168 0.0 0.0 0.00 0.00 0.00 47 1009.3
20260906145700 33 168 0.0 0.0 0.00 0.00 0.00 47 1009.3
20260906145200 33 168 0.0 0.0 0.00 0.00 0.00 49 1009.2
20260906144658 32 168 0.0 0.0 0.00 0.00 0.00 50 1009.2
20260906144156 32 168 0.0 0.0 0.00 0.00 0.00 52 1009.3
20260906143655 32 168 0.0 1.6 0.00 0.00 0.00 52 1009.3
20260906143156 32 168 0.0 1.6 0.00 0.00 0.00 53 1009.3
20260906142656 31 168 0.0 0.0 0.00 0.00 0.00 54 1009.4
20260906142157 31 168 0.0 0.0 0.00 0.00 0.00 56 1009.3
20260906141917 31 168 0.0 0.0 0.00 0.00 0.00 58 1009.2
20260906141155 30 168 0.0 0.0 0.00 0.00 0.00 60 1009.2
20260906140920 30 168 0.0 0.0 0.00 0.00 0.00 60 1009.2
20260906140148 29 168 0.0 0.0 0.00 0.00 0.00 64 1009.3
20260906135648 28 168 0.0 0.0 0.00 0.00 0.00 66 1009.1
20260906135148 28 168 0.0 0.0 0.00 0.00 0.00 68 1009.1
20260906134911 27 168 0.0 0.0 0.00 0.00 0.00 69 1009.0
20260906134146 27 168 0.0 0.0 0.00 0.00 0.00 70 1009.0
20260906133644 27 168 0.0 0.0 0.00 0.00 0.00 71 1009.0
20260906133142 27 168 0.0 0.0 0.00 0.00 0.00 72 1008.9
20260906132642 26 168 0.0 0.0 0.00 0.00 0.00 73 1008.9
20260906132141 26 168 0.0 0.0 0.00 0.00 0.00 74 1008.8
20260906131642 26 168 0.0 0.0 0.00 0.00 0.00 76 1008.8
20260906131143 25 168 0.0 0.0 0.00 0.00 0.00 77 1008.8
20260906130909 25 168 0.0 0.0 0.00 0.00 0.00 78 1008.8
20260906130410 25 168 0.0 0.0 0.00 0.00 0.00 80 1008.7
20260906125640 24 168 0.0 0.0 0.00 0.00 0.00 82 1008.5
20260906125145 24 168 0.0 0.0 0.00 0.00 0.00 83 1008.5
20260906124641 23 168 0.0 0.0 0.00 0.00 0.00 84 1008.4
20260906124140 23 168 0.0 0.0 0.00 0.00 0.00 84 1008.4
20260906123639 23 168 0.0 0.0 0.00 0.00 0.00 83 1008.4
20260906123140 23 168 0.0 0.0 0.00 0.00 0.00 82 1008.3
20260906122904 23 168 0.0 0.0 0.00 0.00 0.00 82 1008.2
20260906122135 23 168 0.0 0.0 0.00 0.00 0.00 82 1008.2
20260906121637 23 168 0.0 0.0 0.00 0.00 0.00 82 1008.1
20260906121135 23 168 0.0 0.0 0.00 0.00 0.00 82 1008.1
20260906120635 23 168 0.0 0.0 0.00 0.00 0.00 81 1008.1
20260906120136 23 168 0.0 0.0 0.00 0.00 0.00 81 1008.0
20260906115635 23 168 0.0 0.0 0.00 0.00 0.00 80 1008.0
20260906115136 23 168 0.0 0.0 0.00 0.00 0.00 80 1008.0
20260906114635 24 168 0.0 0.0 0.00 0.00 0.00 80 1008.0
20260906114137 24 168 0.0 0.0 0.00 0.00 0.00 80 1008.0
20260906113633 24 168 0.0 0.0 0.00 0.00 0.00 79 1008.0
20260906113132 24 168 0.0 0.0 0.00 0.00 0.00 79 1008.0
20260906112633 24 168 0.0 0.0 0.00 0.00 0.00 79 1007.8
20260906112132 24 168 0.0 0.0 0.00 0.00 0.00 79 1007.8
20260906111633 24 168 0.0 0.0 0.00 0.00 0.00 79 1007.9
20260906111132 24 168 0.0 0.0 0.00 0.00 0.00 78 1008.0
20260906110633 24 168 0.0 0.0 0.00 0.00 0.00 78 1008.0
20260906110354 24 168 0.0 0.0 0.00 0.00 0.00 78 1007.9
20260906105634 24 168 0.0 0.0 0.00 0.00 0.00 78 1007.9
20260906105133 24 168 0.0 0.0 0.00 0.00 0.00 77 1007.9
20260906104631 25 168 0.0 0.0 0.00 0.00 0.00 77 1007.9
20260906104124 25 168 0.0 0.0 0.00 0.00 0.00 77 1007.9
20260906103619 25 168 0.0 0.0 0.00 0.00 0.00 76 1007.9
20260906103113 25 168 0.0 0.0 0.00 0.00 0.00 76 1007.9
20260906102606 25 168 0.0 0.0 0.00 0.00 0.00 76 1007.9
20260906102108 25 168 0.0 0.0 0.00 0.00 0.00 76 1007.9
20260906101608 25 168 0.0 0.0 0.00 0.00 0.00 76 1007.8
20260906101108 25 168 0.0 0.0 0.00 0.00 0.00 76 1007.8
20260906101053 25 168 0.0 0.0 0.00 0.00 0.00 76 1007.8
20260906100329 25 168 0.0 0.0 0.00 0.00 0.00 76 1007.9
20260906095605 25 168 0.0 0.0 0.00 0.00 0.00 77 1007.9
20260906095105 25 168 0.0 0.0 0.00 0.00 0.00 77 1007.9
20260906095054 25 168 0.0 0.0 0.00 0.00 0.00 76 1007.9
20260906094105 25 168 0.0 0.0 0.00 0.00 0.00 76 1007.8
20260906093605 25 168 0.0 0.0 0.00 0.00 0.00 75 1007.6
20260906093105 25 168 0.0 0.0 0.00 0.00 0.00 75 1007.6
20260906092606 25 168 0.0 0.0 0.00 0.00 0.00 75 1007.5
20260906092107 25 168 0.0 0.0 0.00 0.00 0.00 75 1007.4
20260906092059 25 168 0.0 0.0 0.00 0.00 0.00 74 1007.4
20260906091106 25 168 0.0 0.0 0.00 0.00 0.00 74 1007.4
20260906090605 25 168 0.0 0.0 0.00 0.00 0.00 73 1007.4
20260906090322 25 168 0.0 0.0 0.00 0.00 0.00 72 1007.4
20260906085605 25 168 0.0 0.0 0.00 0.00 0.00 72 1007.5
20260906085105 25 168 0.0 0.0 0.00 0.00 0.00 72 1007.5
20260906084604 26 168 0.0 0.0 0.00 0.00 0.00 71 1007.4
20260906084105 26 168 0.0 1.6 0.00 0.00 0.00 71 1007.4
20260906083840 26 168 0.0 1.6 0.00 0.00 0.00 71 1007.5
20260906083105 26 168 0.0 0.0 0.00 0.00 0.00 71 1007.3
20260906082605 26 168 0.0 0.0 0.00 0.00 0.00 71 1007.3
20260906082105 25 168 0.0 0.0 0.00 0.00 0.00 72 1007.4
20260906081605 25 168 0.0 0.0 0.00 0.00 0.00 73 1007.3
20260906081105 25 168 0.0 9.7 0.00 0.00 0.00 74 1007.3
20260906080605 25 168 0.0 9.7 0.00 0.00 0.00 74 1007.2
20260906080106 25 168 0.0 0.0 0.00 0.00 0.00 74 1007.0
20260906075829 25 168 0.0 0.0 0.00 0.00 0.00 74 1006.9
20260906075105 25 168 0.0 0.0 0.00 0.00 0.00 74 1006.9
20260906074604 25 168 0.0 0.0 0.00 0.00 0.00 74 1007.0
20260906074105 25 168 0.0 0.0 0.00 0.00 0.00 73 1006.9
20260906073558 25 168 0.0 0.0 0.00 0.00 0.00 73 1006.9
20260906073053 25 168 0.0 0.0 0.00 0.00 0.00 73 1007.0
20260906072551 25 168 0.0 0.0 0.00 0.00 0.00 73 1007.0
20260906072051 25 168 0.0 0.0 0.00 0.00 0.00 72 1007.0
20260906071550 25 168 0.0 0.0 0.00 0.00 0.00 72 1007.0
20260906071048 25 168 0.0 0.0 0.00 0.00 0.00 72 1007.0
20260906070546 25 168 0.0 0.0 0.00 0.00 0.00 71 1007.0
20260906070045 25 168 0.0 0.0 0.00 0.00 0.00 71 1007.0
20260906065808 26 168 0.0 0.0 0.00 0.00 0.00 70 1007.2
20260906065043 26 168 0.0 0.0 0.00 0.00 0.00 71 1007.0
20260906064541 26 168 0.0 0.0 0.00 0.00 0.00 70 1007.0
20260906064040 26 168 0.0 0.0 0.00 0.00 0.00 70 1007.0
20260906063757 26 168 0.0 0.0 0.00 0.00 0.00 70 1007.0
20260906063036 26 168 0.0 0.0 0.00 0.00 0.00 70 1007.2
20260906062535 26 168 0.0 0.0 0.00 0.00 0.00 70 1007.0
20260906062034 26 168 0.0 0.0 0.00 0.00 0.00 70 1007.0
20260906061533 26 168 0.0 0.0 0.00 0.00 0.00 69 1007.0
20260906061033 26 168 0.0 0.0 0.00 0.00 0.00 68 1007.0
20260906060533 26 168 0.0 0.0 0.00 0.00 0.00 68 1007.0
20260906060033 26 168 0.0 0.0 0.00 0.00 0.00 68 1007.0
20260906055533 26 168 0.0 0.0 0.00 0.00 0.00 68 1007.2
20260906055033 26 168 0.0 0.0 0.00 0.00 0.00 67 1007.2
20260906054528 26 168 0.0 0.0 0.00 0.00 0.00 68 1007.2
20260906054019 26 168 0.0 0.0 0.00 0.00 0.00 67 1007.3
20260906053513 26 168 0.0 0.0 0.00 0.00 0.00 67 1007.3
20260906053007 26 168 0.0 0.0 0.00 0.00 0.00 67 1007.4
20260906052507 26 168 0.0 0.0 0.00 0.00 0.00 67 1007.3
20260906052007 27 168 0.0 0.0 0.00 0.00 0.00 67 1007.3
20260906051727 27 168 0.0 0.0 0.00 0.00 0.00 66 1007.3
20260906051005 27 168 0.0 0.0 0.00 0.00 0.00 66 1007.3
20260906050503 27 168 0.0 0.0 0.00 0.00 0.00 66 1007.3
20260906050226 27 168 0.0 0.0 0.00 0.00 0.00 66 1007.2
20260906045501 27 168 0.0 0.0 0.00 0.00 0.00 66 1007.2
20260906045000 27 168 0.0 0.0 0.00 0.00 0.00 65 1007.3
20260906044500 27 168 0.0 0.0 0.00 0.00 0.00 64 1007.0
20260906044001 27 168 0.0 0.0 0.00 0.00 0.00 64 1007.0
20260906043725 27 168 0.0 0.0 0.00 0.00 0.00 63 1007.0
20260906043001 28 168 0.0 0.0 0.00 0.00 0.00 62 1007.0
20260906042501 28 168 0.0 0.0 0.00 0.00 0.00 62 1007.0
20260906042223 28 168 0.0 0.0 0.00 0.00 0.00 61 1007.0
20260906041717 28 168 0.0 0.0 0.00 0.00 0.00 60 1007.0
20260906040955 28 168 0.0 0.0 0.00 0.00 0.00 59 1007.0
20260906040455 28 168 0.0 0.0 0.00 0.00 0.00 59 1007.0
20260906035955 28 168 0.0 0.0 0.00 0.00 0.00 58 1007.2
20260906035455 28 168 0.0 0.0 0.00 0.00 0.00 58 1007.3
20260906034954 28 168 0.0 0.0 0.00 0.00 0.00 57 1007.2
20260906034453 28 168 0.0 0.0 0.00 0.00 0.00 57 1007.0
20260906033953 29 168 0.0 0.0 0.00 0.00 0.00 57 1007.2
20260906033723 29 168 0.0 0.0 0.00 0.00 0.00 56 1007.0
20260906032953 29 168 0.0 0.0 0.00 0.00 0.00 56 1007.2
20260906032450 29 168 0.0 0.0 0.00 0.00 0.00 56 1007.0
20260906031949 29 168 0.0 0.0 0.00 0.00 0.00 55 1007.0
20260906031707 29 168 0.0 0.0 0.00 0.00 0.00 54 1006.9
20260906030949 30 168 0.0 0.0 0.00 0.00 0.00 53 1006.8
20260906030448 30 168 0.0 0.0 0.00 0.00 0.00 52 1006.8
20260906025949 30 168 0.0 0.0 0.00 0.00 0.00 52 1006.7
20260906025711 30 168 0.0 0.0 0.00 0.00 0.00 52 1006.6
20260906024949 30 168 0.0 0.0 0.00 0.00 0.00 52 1006.6
20260906024711 30 168 0.0 0.0 0.00 0.00 0.00 52 1006.5
20260906023949 30 168 0.0 0.0 0.00 0.00 0.00 51 1006.5
20260906023449 30 168 0.0 0.0 0.00 0.00 0.00 51 1006.3
20260906023209 30 168 0.0 0.0 0.00 0.00 0.00 51 1006.3
20260906022449 30 168 0.0 0.0 0.00 0.00 0.00 50 1006.2
20260906021949 31 168 0.0 0.0 0.00 0.00 0.00 50 1006.1
20260906021708 31 168 0.0 0.0 0.00 0.00 0.00 50 1006.1
20260906020949 31 168 0.0 0.0 0.00 0.00 0.00 49 1006.1
20260906020448 31 168 0.0 0.0 0.00 0.00 0.00 48 1006.1
20260906020209 31 168 0.0 0.0 0.00 0.00 0.00 48 1006.1
20260906015448 31 168 0.0 0.0 0.00 0.00 0.00 47 1006.0
20260906014952 32 168 0.0 0.0 0.00 0.00 0.00 47 1006.0
20260906014453 32 168 0.0 0.0 0.00 0.00 0.00 46 1005.9
20260906013951 32 168 0.0 0.0 0.00 0.00 0.00 45 1005.8
20260906013449 32 168 0.0 0.0 0.00 0.00 0.00 45 1005.7
20260906012948 32 168 0.0 0.0 0.00 0.00 0.00 45 1005.6
20260906012714 33 168 0.0 0.0 0.00 0.00 0.00 44 1005.5
20260906011946 33 168 0.0 0.0 0.00 0.00 0.00 44 1005.5
20260906011444 33 168 0.0 0.0 0.00 0.00 0.00 43 1005.5
20260906011205 33 168 0.0 0.0 0.00 0.00 0.00 42 1005.6
20260906010441 34 168 0.0 0.0 0.00 0.00 0.00 41 1005.6
20260906005938 34 168 0.0 0.0 0.00 0.00 0.00 40 1005.5
20260906005440 35 168 0.0 0.0 0.00 0.00 0.00 40 1005.5
20260906004934 35 168 0.0 0.0 0.00 0.00 0.00 39 1005.6
20260906004650 35 168 0.0 0.0 0.00 0.00 0.00 38 1005.6
20260906004156 36 168 0.0 0.0 0.00 0.00 0.00 37 1005.6
20260906003658 36 168 0.0 0.0 0.00 0.00 0.00 36 1005.7
20260906003156 36 168 0.0 0.0 0.00 0.00 0.00 36 1005.7
20260906002649 36 168 0.0 0.0 0.00 0.00 0.00 35 1005.7
20260906001918 36 168 0.0 0.0 0.00 0.00 0.00 34 1005.7
20260906001412 36 168 0.0 0.0 0.00 0.00 0.00 35 1005.7
20260906000908 36 168 0.0 0.0 0.00 0.00 0.00 34 1005.7
20260906000407 37 168 0.0 0.0 0.00 0.00 0.00 34 1005.7
20260905235906 37 168 0.0 0.0 0.00 0.00 0.00 34 1005.6
20260905235405 37 168 0.0 0.0 0.00 0.00 0.00 34 1005.6
20260905235123 37 168 0.0 0.0 0.00 0.00 0.00 34 1005.6
20260905234403 37 168 0.0 0.0 0.00 0.00 0.00 34 1005.5
20260905233902 37 168 0.0 0.0 0.00 0.00 0.00 34 1005.5
20260905233403 37 168 0.0 0.0 0.00 0.00 0.00 34 1005.5
20260905233133 37 168 0.0 0.0 0.00 0.00 0.00 34 1005.5
20260905232402 37 168 0.0 0.0 0.00 0.00 0.00 33 1005.4
20260905231901 38 169 0.0 0.0 0.00 0.00 0.00 33 1005.4
20260905231402 38 174 0.0 1.6 0.00 0.00 0.00 32 1005.3
20260905230901 38 173 0.0 1.6 0.00 0.00 0.00 32 1005.4
20260905230401 38 175 0.0 0.0 0.00 0.00 0.00 32 1005.4
20260905225901 38 175 0.0 0.0 0.00 0.00 0.00 31 1005.4
20260905225400 38 175 0.0 0.0 0.00 0.00 0.00 32 1005.4
20260905224901 38 175 0.0 0.0 0.00 0.00 0.00 32 1005.5
20260905224401 38 175 0.0 0.0 0.00 0.00 0.00 32 1005.4
20260905224125 38 176 0.0 4.8 0.00 0.00 0.00 32 1005.4
20260905223626 38 176 0.0 4.8 0.00 0.00 0.00 32 1005.5
20260905222902 38 177 0.0 3.2 0.00 0.00 0.00 32 1005.4
20260905222402 38 168 0.0 3.2 0.00 0.00 0.00 32 1005.4
20260905221901 38 172 0.0 0.0 0.00 0.00 0.00 32 1005.4
20260905221401 38 172 0.0 1.6 0.00 0.00 0.00 32 1005.5
20260905220901 38 169 0.0 6.4 0.00 0.00 0.00 32 1005.5
20260905220401 38 171 0.0 6.4 0.00 0.00 0.00 32 1005.5
20260905215901 38 171 0.0 3.2 0.00 0.00 0.00 32 1005.5
20260905215401 38 117 0.0 3.2 0.00 0.00 0.00 32 1005.6
20260905214902 38 179 0.0 0.0 0.00 0.00 0.00 33 1005.6
20260905214401 38 179 0.0 0.0 0.00 0.00 0.00 33 1005.7
20260905213901 38 175 0.0 0.0 0.00 0.00 0.00 33 1005.7
20260905213401 38 169 0.0 0.0 0.00 0.00 0.00 33 1005.7
20260905212901 38 168 0.0 1.6 0.00 0.00 0.00 33 1005.8
20260905212400 38 167 0.0 1.6 0.00 0.00 0.00 32 1005.9
20260905211901 38 166 0.0 1.6 0.00 0.00 0.00 33 1006.0
20260905211400 38 165 0.0 1.6 0.00 0.00 0.00 33 1006.0
20260905210902 38 166 0.0 14.5 0.00 0.00 0.00 33 1006.1
20260905210622 38 166 0.0 14.5 0.00 0.00 0.00 33 1006.1
20260905205901 38 171 0.0 9.7 0.00 0.00 0.00 34 1006.2
20260905205401 38 169 0.0 3.2 0.00 0.00 0.00 33 1006.3
20260905204901 38 168 0.0 12.9 0.00 0.00 0.00 34 1006.5
20260905204401 38 175 0.0 12.9 0.00 0.00 0.00 34 1006.5
20260905203901 38 167 0.0 9.7 0.00 0.00 0.00 34 1006.5
20260905203401 38 149 0.0 3.2 0.00 0.00 0.00 34 1006.6
20260905202901 38 197 0.0 3.2 0.00 0.00 0.00 34 1006.7
20260905202401 38 180 0.0 1.6 0.00 0.00 0.00 34 1006.7
20260905201902 38 182 0.0 1.6 0.00 0.00 0.00 33 1006.8
20260905201400 38 181 0.0 8.0 0.00 0.00 0.00 33 1007.0
20260905200901 38 178 0.0 8.0 0.00 0.00 0.00 33 1006.9
20260905200402 38 135 0.0 8.0 0.00 0.00 0.00 34 1007.0
20260905195902 38 185 0.0 3.2 0.00 0.00 0.00 34 1007.2
20260905195400 38 165 0.0 3.2 0.00 0.00 0.00 33 1007.3
20260905194854 38 172 0.0 11.3 0.00 0.00 0.00 32 1007.3